sat.trackr.live / text

‹ back to catalog

STARLINK-11106 [DTC]

NORAD 59765 · 2024-091N

PAYLOAD ACTIVE UNKNOWN

§ Identity

Operator
Country
US
Launch date
2024-05-14
Launch site
AFWTR
Launch vehicle
Mass (kg)
RCS (m²)

Purposes: comms

External: N2YO · Heavens-Above · Gunter

§ Orbital elements

Epoch: 2026-09-21T10:47:19.920768Z

Period
91.74 min
Inclination
53.1594°
Eccentricity
0.0000899
Mean motion
15.69698688 rev/d
Perigee alt
359.2 km
Apogee alt
360.4 km
Semi-major
6,737.9 km
B*
-6.5613e-6
RAAN
320.9422°
Arg perigee
54.7924°
Mean anomaly
305.3179°
Rev number
13,626

§ Raw data

STARLINK-11106 [DTC]1 59765U 24091N   26264.44953612 -.00001383  00000+0 -65613-5 0  99942 59765  53.1594 320.9422 0000899  54.7924 305.3179 15.69698688136262

JSON: /api/v1/satellites/59765 · /tle

For live sub-satellite position, see the globe view (requires WebGL).

§ Visibility from observer

Set your observer location to see the next 7 days of passes ≥ 10°. The values pass through the URL so the page stays shareable.

No JS? Fill the form by hand. The geolocation button needs JavaScript.